Погода в Клерксдорпе

ЮАР     26°51′50″S   26°39′59″E
темп.,
°C
ветер,
м/с
пор.,
м/с
влажн.,
%
обл.,
%
осадки,
мм/ч
давл.,
гПа
погр.,
м
17 августа, ср
ср1723:00+9ссз454345 0.0 102149
02:00+8ссз48485 0.0 102094
05:00+8ссз511515 0.0 1018121
08:00+12ссз612405 0.0 1018242
11:00+23сз89135 0.0 10151151
14:00+26зсз9121012 0.0 10112368
17:00+24зсз81195 0.0 10101173
20:00+15сз45173 0.0 101346
18 августа, чт
чт1823:00+12сз33210 0.0 101519
02:00+10ссз22240 0.0 101311
05:00+9зсз22260 0.0 101311
08:00+12з24210 0.0 1015159
11:00+19зюз56162 0.0 10121002
14:00+24з712100 0.0 10082222
17:00+21з79115 0.0 10081475
20:00+12з51125100 0.0 1013175
19 августа, пт
пт1923:00+11юз81437100 0.0 1015514
02:00+7ююз510625 0.0 1016340
05:00+4ююз347599 0.0 101868
08:00+6юз59665 0.0 1021583
11:00+12юз811345 0.0 10191825
14:00+15юз811243 0.0 10172077
17:00+14юз79290 0.0 10181749
20:00+9юз49431 0.0 1022147
20 августа, сб
сб2023:00+6зюз33542 0.0 102324
02:00+4зюз33620 0.0 102419
05:00+3зсз22660 0.0 102514
08:00+6юз511500 0.0 1027438
11:00+13ююз811200 0.0 1024947
14:00+16ююз911180 0.0 10211336
17:00+15ююз68210 0.0 10211327
20:00+9ююз33340 0.0 102617
21 августа, вс
вс2123:00+6ююз22410 0.0 102711
02:00+5ююз22460 0.0 102710
05:00+3ююв11510 0.0 102810
08:00+7юв12370 0.0 1029122
11:00+14юв22210 0.0 1026860
14:00+19зсз12150 0.0 10221669
17:00+20ююз22140 0.0 1021468
20:00+12св11250 0.0 102410